Showing default

GOMX 1, 39430

Orbit data source: Space-Track

GOMX 1, 39430 is a payload satellite owned by GOMSpace (DK) in SSO that was launched on Thu, 21 Nov 2013 UTC via a DNEPR launch vehicle from the Orenburg, Russia (OREN). Payload-class satellites include a variety of spacecraft equipped with specific instruments for various scientific and technological missions. These include communications satellites like Starlink; space stations such as the ISS; scientific satellites like the Hubble; Earth observation satellites from companies like Planet Labs, Umbra, and HawkEye 360; GPS; miniature CubeSats for education and research; and military/defense satellites.

Loading next visibility...
Identifier
39430, 2013-066Q
Orbit
SSO
Country
Flag of DKDK / DEN
Related business
Manufacturer
GOMSP/AAU
Mission
Operational Commercial Communications
Bus & Motor
CUBESAT 2U, Unknown motor
Mass
3 kg wet, 3 kg dry
Launch date (UTC)
2013-11-21 (12 years ago)
Launch vehicle
DNEPR
Launch site
Orenburg, Russia (OREN)
Object type
Payload
Rocket body
Debris
Shape & HBR
Box, 0.1 m
Radar Cross Section
0.075 m², Small (<0.1 m²)

Expand to show TLE details & history
Last TLE update: 8 hours ago

TLE from 8 hours ago
0 GOMX 1
1 39430U 13066Q   26037.69701833  .00003966  00000-0  60170-3 0  9991
2 39430  97.6577 246.3331 0130522 136.1001 225.0666 14.68964812650758
Epoch: 2026-02-06T16:43Z
TLE epoch observation values (Epoch: 2026-02-06T16:43:42.383Z)
Latitude
-0.00008°
Longitude
-141.42466°
Altitude
732.918 km
Speed
7.454 km/s
True Right ascension
16h 25m 19s
True Declination
0° 00' 00"
Sunlit
Object was in daylight at epoch
Visualization orbit readout
Latitude
Unknown
Longitude
Unknown
Altitude
Unknown
Speed
Unknown
Apparent Right ascension
Unknown
Apparent Declination
Unknown
Sunlit
N/A
Visualization observer readout
Local Sidereal Time
02:40:50
Azimuth
Unknown
Elevation
Unknown
Doppler factor
Unknown
Orbital elements
Apogee altitude
753.301 km
Perigee altitude
569.537 km
Semi-major axis
7,039.556 km
Eccentricity
0.01305
Inclination
97.6577°
RAAN
246.3331°
Arg. of periapsis
136.1001°
True anomaly
224.0199°
Mean anomaly
225.0666°
Eccentric anomaly
224.54204°
Mean motion
3.67473 °/min
Orbital period
97.97 mins
BSTAR
0.0006017
Loading maneuver chart data...
Computing Atmospheric mass density...
Loading historical data...
Loading historical data...
Loading historical data...
Loading historical data...
Loading historical data...
Loading historical data...
Loading historical data...

Documentation

Showing up to 5 results
|